Regional Weather Roundup
Issued by NWS

Home | Current Version | Previous Version | Graphics & Text | Print | Product List | Glossary On
Versions: 1 2 3 4 5 6 7 8 9 10 11 12 13 14 15 16 17 18 19 20 21 22 23 24 25 26 27 28 29 30 31 32 33 34 35 36 37 38 39 40 41 42 43 44 45 46 47 48 49 50
000
ASUS43 KLOT 310000
RWRIL

ILLINOIS REGIONAL WEATHER ROUNDUP
NATIONAL WEATHER SERVICE CHICAGO/ROMEOVILLE IL
600 PM CST FRI JAN 30 2015

NOTE: "FAIR" INDICATES FEW OR NO CLOUDS BELOW 12,000 FEET WITH NO
SIGNIFICANT WEATHER AND/OR OBSTRUCTIONS TO VISIBILITY.

* THESE STATIONS ARE NOT UNDER NWS QUALITY CONTROL. THEY ALSO MAY NOT
  REPORT WEATHER SUCH AS PRECIPITATION OR FOG.

ILZ001-002-007-009-015-016-024-310100-
NORTHWEST ILLINOIS

CITY           SKY/WX    TMP DP  RH WIND       PRES   REMARKS
MOLINE         CLEAR     27  17  66 S3        30.42F
6HR MIN TEMP:  26; 6HR MAX TEMP:  31;

STERLING*      CLEAR     21  14  73 CALM      30.43S
$$

ILZ003-004-008-010-011-017-018-310100-
NORTH CENTRAL ILLINOIS

CITY           SKY/WX    TMP DP  RH WIND       PRES   REMARKS
ROCKFORD       PTCLDY    24  14  65 SW6       30.43F WCI  17
6HR MIN TEMP:  24; 6HR MAX TEMP:  29;

$$

ILZ005-006-012>014-019>023-310100-
NORTHEAST ILLINOIS

CITY           SKY/WX    TMP DP  RH WIND       PRES   REMARKS
CHICAGO-OHARE  CLEAR     25  11  55 W7        30.42S WCI  17
6HR MIN TEMP:  25; 6HR MAX TEMP:  30;

CHICAGO-MIDWAY PTCLDY    28  12  51 W8        30.43S WCI  20
6HR MIN TEMP:  28; 6HR MAX TEMP:  32;

AURORA         CLEAR     24  14  65 SW6       30.43F WCI  17
6HR MIN TEMP:  24; 6HR MAX TEMP:  29;

WAUKEGAN       CLEAR     23   9  55 CALM      30.41S
6HR MIN TEMP:  23; 6HR MAX TEMP:  28;

DUPAGE AIRPORT CLEAR     23  13  65 SW6       30.42S WCI  16
6HR MIN TEMP:  23; 6HR MAX TEMP:  29;

WHEELING       CLEAR     26   9  48 W6        30.43F WCI  19
6HR MIN TEMP:  26; 6HR MAX TEMP:  30;

NORTHERLY ISL    N/A     25  16  68 SE5         N/A  WCI  19
$$

LMZ740>746-310100-
SOUTHERN LAKE MICHIGAN

STATION/POSITION SKY/WX   TEMP    WIND        PRES    VSBY  WAVE
                          AIR SEA DIR/SP/G                  HT/PER
                          (F)     (DEG/KT/KT) (MB)    (MI)  (FT/S)
WAUKEGAN HARBOR            25     190/  8/  9   N/A
HARRISON CRIB              24     130/  6/  8   N/A
BURNHAM HARBOR             25     140/  4/  5   N/A
CALUMET HARBOR             25     100/  5/  5   N/A
MICHIGAN CITY              26     330/  1/  2   N/A
$$

ILZ025>027-034>036-040-047-049-050-058-095>099-310100-
WEST-CENTRAL ILLINOIS

CITY           SKY/WX    TMP DP  RH WIND       PRES   REMARKS
QUINCY         CLEAR     32  15  49 CALM      30.44S
$$

ILZ028>032-037-038-041>044-048-051>054-059>061-310100-
CENTRAL ILLINOIS

CITY           SKY/WX    TMP DP  RH WIND       PRES   REMARKS
DECATUR        CLEAR     29  20  69 CALM      30.46S
PEORIA         CLEAR     30  18  60 S6        30.45F WCI  24
6HR MIN TEMP:  30; 6HR MAX TEMP:  36;

SPRINGFIELD    CLEAR     31  21  66 CALM      30.46S
6HR MIN TEMP:  30; 6HR MAX TEMP:  37;

TAYLORVILLE    NOT AVBL
$$

ILZ033-039-045-046-055>057-062-063-310100-
EAST-CENTRAL ILLINOIS

CITY           SKY/WX    TMP DP  RH WIND       PRES   REMARKS
CHAMPAIGN      CLEAR     30  18  60 W3        30.45F
MATTOON        CLEAR     29  20  69 CALM      30.45S
$$

ILZ079-100>102-310100-
SOUTHWEST ILLINOIS

CITY           SKY/WX    TMP DP  RH WIND       PRES   REMARKS
BELLEVILLE     CLEAR     33  21  61 E3        30.46S
CAHOKIA*       CLEAR     33  18  53 E3        30.46F
$$

ILZ064>066-069>071-074>076-080>082-084>086-088>090-092>094-310100-
SOUTH-CENTRAL ILLINOIS

CITY           SKY/WX    TMP DP  RH WIND       PRES   REMARKS
CARBONDALE     PTCLDY    33  18  53 CALM      30.47S
6HR MIN TEMP:  33; 6HR MAX TEMP:  41;

MARION         PTCLDY    32  21  64 CALM      30.47F
MT. VERNON     CLEAR     30  16  55 CALM      30.47S
$$

ILZ067-068-072-073-078-083-087-091-310100-
SOUTHEAST ILLINOIS

CITY           SKY/WX    TMP DP  RH WIND       PRES   REMARKS
LAWRENCEVILLE  CLEAR     31  21  66 N6        30.48S WCI  25
$$

ABBREVIATIONS USED IN REMARKS
   TC - TEMPERATURE IN CELSIUS
  WCI - WIND CHILL INDEX
   HX - HEAT INDEX
  VSB - VISIBILITY
$$




USA.gov is the U.S. government's official web portal to all federal, state and local government web resources and services.